Location: Smoky Mountain Stargaze
(35.4252°N, 83.3329°W)
Time: 06:28:22
(UTC-04:00)

Amateur Radio Satellites - All Passes

Search period start: 23 April 2014 05:58
Search period end: 24 April 2014 05:58
Location: Smoky Mountain Stargaze, 35.4252°N, 83.3329°W

Satellite Date Start Highest point End Downlink Frequencies (MHz)
Time Altitude Azimuth
Gurwin Techsat 1B 23 Apr 05:59:35 06:02:52 17° 295° (WNW) 06:06:10 435.225 FM
MaSat-1 23 Apr 06:50:09 06:53:06 33° 65° (ENE) 06:56:32 437.345 MHz
STRAND 1 23 Apr 06:55:56 07:00:40 39° 71° (ENE) 07:05:23 ?
PANSAT 23 Apr 06:58:58 07:01:19 16° 162° (SSE) 07:03:40 not established
Hamsat 23 Apr 07:29:47 07:34:03 51° 100° (E) 07:38:18 145.90 MHz
AO-7 23 Apr 07:33:14 07:40:23 34° 298° (WNW) 07:47:33 29.400 - 29.500 MHz
SO-67 23 Apr 07:50:54 07:52:15 12° 93° (E) 07:53:35 435.3500 MHz FM
RS-15 23 Apr 08:05:22 08:16:27 57° 306° (NW) 08:27:13 29.354 - 29.394 USB, Beacon 29.352 USB
JAS-2 23 Apr 08:19:54 08:25:24 54° 101° (E) 08:31:33 435.800 - 435.900 CW/SSB, 435.910 FM
PCSat 23 Apr 08:26:54 08:29:12 13° 46° (NE) 08:31:31 145.825 MHz
MaSat-1 23 Apr 08:30:18 08:31:20 11° 252° (WSW) 08:32:24 437.345 MHz
STRAND 1 23 Apr 08:36:12 08:39:57 21° 265° (W) 08:43:42 ?
PANSAT 23 Apr 08:37:42 08:41:02 27° 175° (S) 08:44:21 not established
Hamsat 23 Apr 09:07:45 09:09:33 12° 294° (WNW) 09:11:22 145.90 MHz
SO-67 23 Apr 09:22:22 09:25:27 30° 287° (WNW) 09:28:32 435.3500 MHz FM
Sapphire 23 Apr 09:23:47 09:28:41 34° 57° (ENE) 09:33:34 437.095 MHz 1200 baud AX-25 AFSK
HO-68 23 Apr 09:33:30 09:38:37 21° 94° (E) 09:43:41 435.675 MHz FM
Saudisat 1A 23 Apr 10:04:03 10:07:58 31° 113° (ESE) 10:11:53 436.775 MHz
JAS-2 23 Apr 10:06:23 10:10:11 19° 293° (WNW) 10:14:14 435.800 - 435.900 CW/SSB, 435.910 FM
PCSat 23 Apr 10:07:56 10:13:23 88° 64° (ENE) 10:18:48 145.825 MHz
PANSAT 23 Apr 10:17:34 10:20:50 26° 188° (S) 10:24:05 not established
RS-15 23 Apr 10:25:14 10:31:57 17° 334° (NNW) 10:38:37 29.354 - 29.394 USB, Beacon 29.352 USB
Oscar 11 23 Apr 10:54:39 10:58:45 39° 98° (E) 11:02:50 145.825 FM, Beacon 2401.500 USB
FUNcube-1 23 Apr 10:58:48 11:00:41 13° 93° (E) 11:02:35 145.950 - 145.970 MHz USB
KITSAT 1 23 Apr 11:06:18 11:13:14 30° 49° (NE) 11:20:06 435.175 FM
Sapphire 23 Apr 11:07:23 11:11:57 29° 252° (WSW) 11:16:31 437.095 MHz 1200 baud AX-25 AFSK
HO-68 23 Apr 11:19:38 11:26:43 64° 289° (WNW) 11:33:47 435.675 MHz FM
Saudisat 1A 23 Apr 11:43:53 11:47:33 24° 308° (NW) 11:51:14 436.775 MHz
PANSAT 23 Apr 11:58:38 12:00:30 13° 200° (SSW) 12:02:21 not established
Oscar 10/S400 23 Apr 12:13:22 13:57:04 45° 254° (WSW) 19:05:31 145.825 - 145.975 CW/USB, Beacon 145.810 USB
Oscar 11 23 Apr 12:31:57 12:34:36 16° 293° (WNW) 12:37:15 145.825 FM, Beacon 2401.500 USB
FUNcube-1 23 Apr 12:33:09 12:37:17 47° 286° (WNW) 12:41:31 145.950 - 145.970 MHz USB
RS-15 23 Apr 12:46:44 12:51:10 13° 13° (NNE) 12:55:35 29.354 - 29.394 USB, Beacon 29.352 USB
KITSAT 1 23 Apr 13:01:08 13:09:03 60° 248° (WSW) 13:16:54 435.175 FM
HO-68 23 Apr 13:12:23 13:13:02 10° 307° (NW) 13:13:40 435.675 MHz FM
AO-27 23 Apr 13:42:15 13:45:23 16° 64° (ENE) 13:48:31 436.795 MHz FM
Oscar 19 23 Apr 13:45:10 13:49:42 33° 70° (ENE) 13:54:17 437.125 CW, 437.150 USB
ITAMSAT 1 23 Apr 13:51:13 13:54:52 20° 66° (ENE) 13:58:30 435.822 SSB
Oscar 16 23 Apr 13:53:53 13:58:43 43° 72° (ENE) 14:03:35 437.025 USB, Beacon 2401.1428
ISS 23 Apr 14:08:42 14:12:01 73° 136° (SE) 14:15:21 145.800 FM
Uribyol 2 23 Apr 14:36:49 14:41:52 59° 74° (ENE) 14:46:56 436.500 FM
TMSAT-1 23 Apr 14:44:56 14:47:31 14° 63° (ENE) 14:50:05 436.925 FM
JAS-1B 23 Apr 14:48:30 14:50:58 12° 61° (ENE) 14:53:19 435.800 - 435.900 CW/SSB
AO-Echo 23 Apr 14:51:25 14:56:34 62° 74° (ENE) 15:01:36 ?
RS-15 23 Apr 14:58:28 15:08:18 36° 46° (NE) 15:18:16 29.354 - 29.394 USB, Beacon 29.352 USB
SO-50 23 Apr 15:15:45 15:20:13 85° 299° (WNW) 15:24:44 436.795 FM
AO-27 23 Apr 15:19:21 15:24:25 54° 259° (W) 15:29:30 436.795 MHz FM
Oscar 19 23 Apr 15:24:50 15:29:02 25° 264° (W) 15:33:15 437.125 CW, 437.150 USB
ITAMSAT 1 23 Apr 15:29:04 15:34:00 44° 261° (W) 15:38:56 435.822 SSB
Oscar 16 23 Apr 15:34:39 15:38:13 19° 266° (W) 15:41:49 437.025 USB, Beacon 2401.1428
Gurwin Techsat 1B 23 Apr 15:36:13 15:41:27 63° 74° (ENE) 15:46:42 435.225 FM
ISS 23 Apr 15:47:07 15:49:04 15° 333° (NNW) 15:51:02 145.800 FM
Uribyol 2 23 Apr 16:19:09 16:21:41 14° 268° (W) 16:24:13 436.500 FM
TMSAT-1 23 Apr 16:21:34 16:26:49 67° 258° (WSW) 16:32:05 436.925 FM
OPAL 23 Apr 16:23:52 16:29:07 79° 105° (ESE) 16:34:19 ?
JAS-1B 23 Apr 16:32:48 16:40:53 80° 75° (ENE) 16:47:36 435.800 - 435.900 CW/SSB
AO-Echo 23 Apr 16:33:15 16:35:38 13° 268° (W) 16:38:00 ?
AO-7 23 Apr 16:35:28 16:43:23 53° 67° (ENE) 16:51:19 29.400 - 29.500 MHz
Uosat F 23 Apr 16:52:25 16:57:26 89° 76° (ENE) 17:02:29 435.120 FM
RS-15 23 Apr 17:10:28 17:21:14 65° 247° (WSW) 17:32:22 29.354 - 29.394 USB, Beacon 29.352 USB
UOSAT-12 23 Apr 17:13:39 17:18:10 82° 118° (ESE) 17:22:49 437.025 FM, 437.400 FM
Gurwin Techsat 1B 23 Apr 17:19:21 17:21:48 13° 268° (W) 17:24:15 435.225 FM
OPAL 23 Apr 18:05:22 18:07:17 12° 300° (WNW) 18:09:11 ?
Hamsat 23 Apr 18:20:53 18:24:19 25° 71° (ENE) 18:27:47 145.90 MHz
JAS-1B 23 Apr 18:27:23 18:31:42 16° 266° (W) 18:35:42 435.800 - 435.900 CW/SSB
AO-7 23 Apr 18:29:20 18:36:21 31° 263° (W) 18:43:26 29.400 - 29.500 MHz
JAS-2 23 Apr 18:32:31 18:35:21 14° 65° (ENE) 18:38:05 435.800 - 435.900 CW/SSB, 435.910 FM
Saudisat 1A 23 Apr 18:35:01 18:36:58 13° 45° (NE) 18:38:53 436.775 MHz
UOSAT-12 23 Apr 18:57:08 18:58:56 12° 316° (NW) 19:00:45 437.025 FM, 437.400 FM
STRAND 1 23 Apr 19:10:43 19:13:58 17° 94° (E) 19:17:11 ?
SO-67 23 Apr 19:52:38 19:56:00 49° 76° (ENE) 19:59:23 435.3500 MHz FM
Hamsat 23 Apr 19:56:55 20:00:13 22° 265° (W) 20:03:34 145.90 MHz
HO-68 23 Apr 20:02:38 20:04:50 12° 54° (NE) 20:07:02 435.675 MHz FM
Saudisat 1A 23 Apr 20:12:39 20:17:02 70° 243° (WSW) 20:21:22 436.775 MHz
JAS-2 23 Apr 20:14:17 20:20:01 62° 258° (WSW) 20:25:17 435.800 - 435.900 CW/SSB, 435.910 FM
ISS 23 Apr 20:40:18 20:43:06 24° 33° (NNE) 20:45:54 145.800 FM
STRAND 1 23 Apr 20:48:29 20:53:21 47° 288° (WNW) 20:58:13 ?
MaSat-1 23 Apr 20:50:35 20:53:16 31° 111° (ESE) 20:55:41 437.345 MHz
HO-68 23 Apr 21:44:12 21:51:16 72° 72° (ENE) 21:58:24 435.675 MHz FM
Oscar 11 23 Apr 21:47:30 21:50:47 22° 69° (ENE) 21:54:04 145.825 FM, Beacon 2401.500 USB
ISS 23 Apr 22:16:51 22:19:50 30° 228° (SW) 22:22:48 145.800 FM
PCSat 23 Apr 23:05:29 23:08:57 18° 105° (ESE) 23:12:26 145.825 MHz
Oscar 11 23 Apr 23:23:08 23:26:48 27° 264° (W) 23:30:29 145.825 FM, Beacon 2401.500 USB
FUNcube-1 23 Apr 23:26:39 23:30:50 86° 258° (WSW) 23:35:01 145.950 - 145.970 MHz USB
HO-68 23 Apr 23:34:58 23:39:30 18° 267° (W) 23:44:03 435.675 MHz FM
SO-50 23 Apr 23:50:23 23:54:43 37° 55° (NE) 23:59:06 436.795 FM
Sapphire 24 Apr 00:02:09 00:07:26 58° 112° (ESE) 00:12:44 437.095 MHz 1200 baud AX-25 AFSK
PCSat 24 Apr 00:46:37 00:51:53 53° 300° (WNW) 00:57:11 145.825 MHz
SO-50 24 Apr 01:31:32 01:35:03 21° 250° (WSW) 01:38:35 436.795 FM
KITSAT 1 24 Apr 01:31:53 01:38:27 28° 105° (ESE) 01:45:02 435.175 FM
UOSAT-12 24 Apr 01:46:27 01:50:40 31° 53° (NE) 01:54:50 437.025 FM, 437.400 FM
Sapphire 24 Apr 01:47:27 01:51:13 19° 309° (NW) 01:55:01 437.095 MHz 1200 baud AX-25 AFSK
Oscar 19 24 Apr 02:01:07 02:03:58 15° 92° (E) 02:06:48 437.125 CW, 437.150 USB
OPAL 24 Apr 02:01:35 02:02:47 11° 59° (ENE) 02:03:59 ?
Oscar 16 24 Apr 02:09:31 02:13:16 20° 94° (E) 02:16:59 437.025 USB, Beacon 2401.1428
Uribyol 2 24 Apr 02:53:11 02:57:32 27° 96° (E) 03:01:53 436.500 FM
AO-Echo 24 Apr 03:02:45 03:06:30 23° 95° (E) 03:10:12 ?
KITSAT 1 24 Apr 03:25:23 03:33:19 57° 302° (WNW) 03:41:19 435.175 FM
UOSAT-12 24 Apr 03:26:47 03:30:41 26° 249° (WSW) 03:34:31 437.025 FM, 437.400 FM
AO-27 24 Apr 03:35:23 03:40:33 70° 102° (ESE) 03:45:43 436.795 MHz FM
OPAL 24 Apr 03:35:52 03:40:54 83° 255° (WSW) 03:46:02 ?
Oscar 19 24 Apr 03:38:31 03:43:36 56° 287° (WNW) 03:48:39 437.125 CW, 437.150 USB
ITAMSAT 1 24 Apr 03:44:45 03:49:57 85° 103° (ESE) 03:55:08 435.822 SSB
Oscar 16 24 Apr 03:47:52 03:52:44 42° 289° (WNW) 03:57:36 437.025 USB, Beacon 2401.1428
Gurwin Techsat 1B 24 Apr 03:55:57 04:00:42 32° 97° (E) 04:05:24 435.225 FM
JAS-1B 24 Apr 04:21:55 04:26:07 20° 96° (E) 04:30:35 435.800 - 435.900 CW/SSB
Uribyol 2 24 Apr 04:32:26 04:36:57 31° 291° (WNW) 04:41:28 436.500 FM
TMSAT-1 24 Apr 04:40:33 04:45:48 64° 101° (ESE) 04:51:02 436.925 FM
AO-Echo 24 Apr 04:41:11 04:45:15 29° 290° (WNW) 04:49:16 ?
AO-7 24 Apr 04:41:59 04:47:32 19° 94° (E) 04:53:04 29.400 - 29.500 MHz
Uosat F 24 Apr 05:03:36 05:08:09 35° 98° (E) 05:12:41 435.120 FM
AO-27 24 Apr 05:17:13 05:19:26 13° 297° (WNW) 05:21:38 436.795 MHz FM
RS-15 24 Apr 05:20:06 05:28:57 27° 104° (ESE) 05:37:31 29.354 - 29.394 USB, Beacon 29.352 USB
KITSAT 1 24 Apr 05:26:56 05:30:39 14° 325° (NW) 05:34:22 435.175 FM
ITAMSAT 1 24 Apr 05:27:53 05:28:41 10° 299° (WNW) 05:29:29 435.822 SSB
Gurwin Techsat 1B 24 Apr 05:36:06 05:40:30 27° 292° (WNW) 05:44:52 435.225 FM
